Regional Weather Roundup
Issued by NWS

Home | Current Version | Previous Version | Graphics & Text | Print | Product List | Glossary On
Versions: 1 2 3 4 5 6 7 8 9 10 11 12 13 14 15 16 17 18 19 20 21 22 23 24 25 26 27 28 29 30 31 32 33 34 35 36 37 38 39 40 41 42 43 44 45 46 47 48 49 50
000
ASUS45 KCYS 262110
RWRWY

WYOMING REGIONAL WEATHER ROUNDUP
NATIONAL WEATHER SERVICE CHEYENNE WY
300 PM MDT SUN APR 26 2015

NOTE:  "FAIR" INDICATES FEW OR NO CLOUDS BELOW 12,000 FEET
WITH NO SIGNIFICANT WEATHER AND/OR OBSTRUCTIONS TO VISIBILITY.

WYZ001-262200-
YELLOWSTONE NATIONAL PARK

CITY           SKY/WX    TMP DP  RH WIND       PRES   REMARKS
LK YELLOWSTONE   N/A     39  31  72 VRB6      30.01R WCI  35
W YELLOWSTONE  NOT AVBL

$$
WYZ002>013-054>058-071-098>099-262200-
NORTHERN WYOMING

CITY           SKY/WX    TMP DP  RH WIND       PRES   REMARKS
JACKSON        CLOUDY    45  37  76 VRB5      29.96R
CODY           CLOUDY    39  36  87 N18       30.04R WCI  30
GREYBULL       CLOUDY    46  40  79 NW10      30.01R
WORLAND        CLOUDY    45  38  76 N8        30.01R
SHERIDAN       LGT RAIN  40  36  86 NW5       30.09R
BUFFALO        LGT RAIN  38  35  89 N15G25    30.06R WCI  29
GILLETTE       LGT RAIN  42  40  92 N13       30.01R
HULETT         LGT RAIN  43  41  93 NE3       30.03R
NEWCASTLE      DRIZZLE   45  45 100 SE12      30.01R

$$
WYZ014>020-022>026-101>103-262200-
CENTRAL WYOMING

CITY           SKY/WX    TMP DP  RH WIND       PRES   REMARKS
BIG PINEY      CLOUDY    47  37  68 NW13      29.93R
PINEDALE       CLOUDY    46  37  71 W14       29.93R
DUBOIS         MOCLDY    43  32  65 SE8G17    29.97R
LANDER         CLOUDY    44  37  76 NE8       29.97R
RIVERTON       CLOUDY    44  38  79 N13       29.99R
CASPER         LGT RAIN  37  35  92 N18       29.98R FOG     WCI  27
DOUGLAS        CLOUDY    49  45  86 SE16G23   29.95R

$$
WYZ021-027>030-104>119-262200-
SOUTHERN WYOMING

CITY           SKY/WX    TMP DP  RH WIND       PRES   REMARKS
EVANSTON       CLOUDY    37  30  75 W8        29.99R WCI  31
KEMMERER       CLOUDY    43  32  65 W21G29    29.95R
FORT BRIDGER   CLOUDY    45  34  65 W18       29.99R
ROCK SPRINGS   CLOUDY    45  37  73 NW6       29.92R
DIXON          DRIZZLE   47  40  76 N5        29.86S
RAWLINS        CLOUDY    53  36  52 NE18G29   29.85R
SARATOGA       FAIR      50  39  66 NW6       29.85F
LARAMIE        CLOUDY    46  35  65 E14       29.89R
CHEYENNE       LGT RAIN  42  39  89 SE13      29.93R FOG
TORRINGTON     CLOUDY    46  43  89 E16       29.95R
PINE BLUFFS    DRIZZLE   41  39  93 E14       29.95R

$$



USA.gov is the U.S. government's official web portal to all federal, state and local government web resources and services.